FW0323 Weather Reports


Display with metric or nautical units.
time (UTC)temp
F
wind
direction
speed
MPH
gust
MPH
rain 1hr
in
rain 24hr
in
rain mn
in
humidity
%
barometer
mb
20260505034555 51 333 1.0 5.0 0.00 0.00 0.00 69 1010.6
20260505033055 48 128 0.0 2.0 0.00 0.00 0.00 77 1010.6
20260505031556 48 208 0.0 1.0 0.00 0.00 0.00 78 1010.7
20260505030056 49 209 0.0 0.0 0.00 0.00 0.00 77 1010.3
20260505024653 50 209 0.0 1.0 0.00 0.00 0.00 76 1010.4
20260505023057 50 209 0.0 1.0 0.00 0.00 0.00 74 1010.4
20260505021554 50 163 0.0 2.0 0.00 0.00 0.00 75 1010.4
20260505020056 51 129 0.0 1.0 0.00 0.00 0.00 71 1010.1
20260505014552 52 129 0.0 1.0 0.00 0.00 0.00 69 1010.1
20260505013052 51 129 0.0 1.0 0.00 0.00 0.00 68 1009.9
20260505011554 52 129 0.0 0.0 0.00 0.00 0.00 73 1009.8
20260505010056 52 129 0.0 0.0 0.00 0.00 0.00 71 1009.6
20260505004549 53 129 0.0 0.0 0.00 0.00 0.00 68 1009.3
20260505003049 54 129 0.0 0.0 0.00 0.00 0.00 67 1009.1
20260505001548 55 129 0.0 0.0 0.00 0.00 0.00 63 1008.8
20260505000050 57 129 0.0 0.0 0.00 0.00 0.00 61 1008.7
20260504234546 59 129 0.0 0.0 0.00 0.00 0.00 56 1008.5
20260504233045 61 129 0.0 0.0 0.00 0.00 0.00 50 1008.4
20260504231544 63 129 0.0 1.0 0.00 0.00 0.00 45 1008.2
20260504230043 65 218 0.0 2.0 0.00 0.00 0.00 43 1008.0
20260504224542 66 255 0.0 4.0 0.00 0.00 0.00 40 1007.9
20260504223042 67 108 0.0 5.0 0.00 0.00 0.00 38 1007.8
20260504221543 67 217 1.0 7.0 0.00 0.00 0.00 37 1007.8
20260504220053 67 272 2.0 6.0 0.00 0.00 0.00 37 1007.8
20260504214549 67 335 1.0 4.0 0.00 0.00 0.00 39 1007.9
20260504213048 68 200 1.0 6.0 0.00 0.00 0.00 36 1008.0
20260504211540 69 338 1.0 7.0 0.00 0.00 0.00 35 1007.9
20260504210038 70 167 0.0 6.0 0.00 0.00 0.00 35 1007.8
20260504204535 69 230 1.0 6.0 0.00 0.00 0.00 36 1007.7
20260504203033 68 330 4.0 10.0 0.00 0.00 0.00 37 1007.9
20260504201530 67 266 2.0 4.0 0.00 0.00 0.00 39 1008.1
20260504200038 67 348 1.0 4.0 0.00 0.00 0.00 39 1008.4
20260504194529 67 278 2.0 5.0 0.00 0.00 0.00 38 1008.4
20260504193027 67 214 1.0 7.0 0.00 0.00 0.00 39 1008.4
20260504191537 66 328 3.0 9.0 0.00 0.00 0.00 42 1008.2
20260504190021 65 185 2.0 4.0 0.00 0.00 0.00 43 1008.3
20260504184520 63 217 2.0 8.0 0.00 0.00 0.00 44 1008.6
20260504183035 62 245 0.0 3.0 0.00 0.00 0.00 46 1008.8
20260504181524 61 16 0.0 2.0 0.00 0.00 0.00 48 1009.0
20260504180021 62 347 1.0 5.0 0.00 0.00 0.00 44 1008.9
20260504174520 61 331 1.0 7.0 0.00 0.00 0.00 45 1008.9
20260504173017 62 264 0.0 5.0 0.00 0.00 0.00 42 1008.9
20260504171517 62 272 2.0 7.0 0.00 0.00 0.00 41 1008.8
20260504081545 35 285 0.0 1.0 0.00 0.00 0.00 82 1011.2
20260504044537 35 266 0.0 1.0 0.00 0.01 0.00 84 1010.8
20260504043029 34 266 0.0 1.0 0.00 0.01 0.00 84 1011.0
20260504041528 34 266 0.0 1.0 0.00 0.01 0.00 87 1010.9
20260504040024 35 266 0.0 1.0 0.00 0.01 0.00 87 1010.8